Chicago Executive, IL

7:16 AM CST on December 18, 2017 (GMT -0600)
Chicago Executive

Weather History for KPWK - June, 2013

Change the Weather History Date:

Sunday, June 16, 2013

  Actual Average Record
Temperature  
Mean Temperature 76 °F 69 °F  
Max Temperature 87 °F 79 °F 93 °F (2007)
Min Temperature 65 °F 58 °F 52 °F (1999)
Degree Days  
Heating Degree Days 0 1  
Month to date heating degree days 50 43  
Since 1 June heating degree days 50 43  
Since 1 July heating degree days 6365 6401  
Cooling Degree Days 11 5  
Month to date cooling degree days 41 63  
Year to date cooling degree days 122 105  
Since 1 June cooling degree days 41 63  
Growing Degree Days 28 (Base 50)    
Moisture  
Dew Point 60 °F    
Average Humidity 58    
Maximum Humidity 78    
Minimum Humidity 33    
Precipitation  
Precipitation 0.00 in 0.13 in 1.24 in (2012)
Month to date precipitation 1.40 2.37  
Year to date precipitation 11.36 13.86  
Sea Level Pressure  
Sea Level Pressure 29.88 in    
Wind  
Wind Speed 6 mph (WNW)    
Max Wind Speed 23 mph    
Max Gust Speed 31 mph    
Visibility 10 miles    
Events      
T = Trace of Precipitation, MM = Missing Value Source: NWS Daily Summary

Daily Weather History Graph

Daily Weather History Graph

Search for Another Location

Airport or City:

Trip Planner

Search our weather history database for the weather conditions in past years. The results will help you decide how hot, cold, wet, or windy it might be!

Date:

Astronomy

Jun. 16, 2013 Rise Set
Actual Time 5:15 AM CDT 8:29 PM CDT
Civil Twilight 4:40 AM CDT 9:04 PM CDT
Nautical Twilight 3:56 AM CDT 9:48 PM CDT
Astronomical Twilight 3:02 AM CDT 10:42 PM CDT
Moon 12:58 PM CDT (6/16) 12:27 AM CDT (6/16)
Length of Visible Light 16h 23m
Length of Day
15h 14m
Waxing Crescent, 50% of the Moon is Illuminated
Jun 16
Waxing Crescent
Jun 16
First Quarter
Jun 23
Full
Jun 29
Last Quarter
Jul 8
New

Hourly Weather History & Observations

Time (CDT) Temp. Heat Index Dew Point Humidity Pressure Visibility Wind Dir Wind Speed Gust Speed Precip Events Conditions
12:52 AM 73.9 °F - 64.0 °F 71% 29.90 in 10.0 mi WSW 17.3 mph 32.2 mph N/A   Mostly Cloudy
1:52 AM 73.0 °F - 63.0 °F 71% 29.87 in 10.0 mi West 15.0 mph 23.0 mph N/A   Partly Cloudy
2:52 AM 73.0 °F - 62.1 °F 68% 29.87 in 10.0 mi West 12.7 mph 24.2 mph N/A   Partly Cloudy
3:52 AM 71.1 °F - 64.0 °F 78% 29.86 in 10.0 mi WNW 10.4 mph - N/A   Partly Cloudy
4:52 AM 70.0 °F - 63.0 °F 78% 29.86 in 10.0 mi West 5.8 mph - N/A   Clear
5:52 AM 70.0 °F - 63.0 °F 78% 29.88 in 10.0 mi West 6.9 mph - N/A   Clear
6:52 AM 71.1 °F - 63.0 °F 75% 29.89 in 10.0 mi WNW 6.9 mph - N/A   Clear
7:52 AM 73.0 °F - 64.9 °F 76% 29.89 in 10.0 mi WNW 8.1 mph - N/A   Clear
8:52 AM 75.9 °F - 66.0 °F 71% 29.90 in 10.0 mi WNW 4.6 mph - N/A   Partly Cloudy
9:52 AM 78.1 °F - 64.9 °F 64% 29.89 in 10.0 mi West 8.1 mph - N/A   Clear
10:52 AM 80.1 °F 81.5 °F 63.0 °F 56% 29.90 in 10.0 mi WNW 4.6 mph - N/A   Partly Cloudy
11:52 AM 82.9 °F 83.2 °F 60.1 °F 46% 29.89 in 10.0 mi Calm Calm - N/A   Clear
12:52 PM 82.9 °F 83.2 °F 60.1 °F 46% 29.89 in 10.0 mi SSW 4.6 mph - N/A   Scattered Clouds
1:52 PM 82.9 °F 82.8 °F 59.0 °F 44% 29.89 in 10.0 mi WNW 3.5 mph - N/A   Partly Cloudy
2:52 PM 86.0 °F 84.9 °F 57.0 °F 37% 29.88 in 10.0 mi West 9.2 mph - N/A   Scattered Clouds
3:52 PM 84.9 °F 83.7 °F 55.9 °F 37% 29.88 in 10.0 mi NW 11.5 mph - N/A   Scattered Clouds
4:52 PM 84.9 °F 83.2 °F 53.1 °F 33% 29.88 in 10.0 mi WNW 11.5 mph 20.7 mph N/A   Clear
5:52 PM 84.9 °F 83.6 °F 55.0 °F 36% 29.87 in 10.0 mi NW 5.8 mph - N/A   Scattered Clouds
6:52 PM 84.9 °F 83.3 °F 54.0 °F 34% 29.87 in 10.0 mi NW 8.1 mph - N/A   Partly Cloudy
7:52 PM 81.0 °F 80.7 °F 55.0 °F 41% 29.87 in 10.0 mi NNW 4.6 mph - N/A   Partly Cloudy
8:52 PM 77.0 °F - 57.9 °F 52% 29.88 in 10.0 mi Calm Calm - N/A   Clear
9:52 PM 73.9 °F - 57.9 °F 57% 29.90 in 10.0 mi Calm Calm - N/A   Scattered Clouds
10:52 PM 71.1 °F - 57.9 °F 63% 29.91 in 10.0 mi Calm Calm - N/A   Clear
11:52 PM 69.1 °F - 59.0 °F 70% 29.91 in 10.0 mi Calm Calm - N/A   Clear